Regional Weather Roundup
Issued by NWS

Home | Current Version | Previous Version | Graphics & Text | Print | Product List | Glossary On
Versions: 1 2 3 4 5 6 7 8 9 10 11 12 13 14 15 16 17 18 19 20 21 22 23 24 25 26 27 28 29 30 31 32 33 34 35 36 37 38 39 40 41 42 43 44 45 46 47 48 49 50
000
ASUS43 KFSD 230502
RWRSD

WEATHER ROUNDUP FOR SOUTH DAKOTA
NATIONAL WEATHER SERVICE SIOUX FALLS SD
1200 AM CDT FRI JUN 23 2017

NOTE: "FAIR" INDICATES FEW OR NO CLOUDS BELOW 12,000 FEET WITH NO
SIGNIFICANT WEATHER AND/OR OBSTRUCTIONS TO VISIBILITY.


SDZ001>005-009-010-012>017-230600-
NORTHWEST AND NORTH CENTRAL SOUTH DAKOTA

CITY           SKY/WX    TMP DP  RH WIND       PRES   REMARKS
BUFFALO          N/A     53  43  68 NW22G31   30.04R
FAITH            N/A     58  36  43 NW22G29   30.02R
MOBRIDGE       LGT RAIN  66  36  32 NW24G30   29.90R
$$

SDZ012>016-024>037-041>051-057-063-072>074-230600-
SOUTHWEST AND SOUTH CENTRAL SOUTH DAKOTA

CITY           SKY/WX    TMP DP  RH WIND       PRES   REMARKS
RAPID CTY ARPT MOCLDY    64  33  31 N32G41    30.06R
PIERRE         CLEAR     62  42  47 NW14      29.91R
CUSTER         CLOUDY    56  30  37 N10G21    30.13S
ELLSWORTH AFB  CLOUDY    63  33  31 N28G39    30.07
PHILIP         CLEAR     56  39  53 CALM      29.99R
PINE RIDGE     CLOUDY    65  36  34 N16       30.05R
SPEARFISH      CLOUDY    57  34  41 NW10G20   30.16R
WINNER         FAIR      60  45  57 NW7       29.94R
$$

SDZ004>011-016>023-039-040-230600-
NORTHEAST SOUTH DAKOTA

CITY           SKY/WX    TMP DP  RH WIND       PRES   REMARKS
ABERDEEN       CLEAR     53  46  77 W8        29.84R
WATERTOWN      CLEAR     59  55  87 W8        29.83S
BROOKINGS      CLEAR     58  53  84 CALM      29.84F
SISSETON         N/A     61  46  57 W9        29.77F
$$

SDZ017-020-022-023-036>040-048>070-230600-
SOUTHEAST SOUTH DAKOTA

CITY           SKY/WX    TMP DP  RH WIND       PRES   REMARKS
SIOUX FALLS    CLEAR     58  51  78 CALM      29.84S
HURON          CLEAR     60  53  77 W5        29.85S
CHAMBERLAIN    CLEAR     64  49  59 NW7       29.91R
MITCHELL       CLEAR     62  53  72 SW5       29.86S
YANKTON        CLEAR     60  53  77 NW7       29.86F
$$

ABBREVIATIONS USED IN REMARKS
   TC - TEMPERATURE IN CELSIUS
  WCI - WIND CHILL INDEX
   HX - HEAT INDEX
  VSB - VISIBILITY





USA.gov is the U.S. government's official web portal to all federal, state and local government web resources and services.